Tracking 18852 objects as of 23-Nov-2017
HD Live streaming from Space Station
objects crossing your sky now

FENGYUN 1C DEB

Track FENGYUN 1C DEB now!
10-day predictions


NORAD ID: 30017
Int'l Code: 1999-025MS
Perigee: 548.9 km
Apogee: 880.2 km
Inclination: 98.8 °
Period: 98.9 minutes
Semi major axis: 7085 km
RCS: 0.0357 m2 (small)
Launch date: May 10, 1999
Source: People's Republic of China (PRC)
Launch site: Taiyaun Space Center, China (TSC)

Note: This is SATELLITE DEBRIS
aabbcc
Your satellite tracking list
Your tracking list is empty




NASA's NSSDC Master Catalog

Two Line Element Set (TLE):
1 30017U 99025MS  17326.57413738  .00000081  00000-0  23588-4 0  9992
2 30017  98.7650 184.9503 0233782 178.9067 181.2689 14.55605124576153
Source of the keplerian elements: AFSPC